Atmospheric History
02/08/2018 19:42  to  2/9/2018 19:42
Change End Date:
To complete the export process:
1) Select all of the data below
2) Copy the data to the clipboard
3) Open a word processor such as Notepad
4) Paste the data into the word processor
5) Save the file

Date/Time (MST), AirTemp, RH, Dewpoint ,AvgWindSpeed, GustWindSpeed, WindDirection, PrecipType, PrecipIntensity, PrecipAccumulation, PrecipRate
02/09/2018 19:38, 5, 76, -1 ,7, 8, E, None, None, ,  
02/09/2018 19:34, 5, 76, -1 ,7, 9, E, None, None, ,  
02/09/2018 19:28, 5, 76, -1 ,7, 9, E, None, None, ,  
02/09/2018 19:19, 6, 76, 0 ,7, 8, E, None, None, ,  
02/09/2018 19:18, 6, 76, 0 ,7, 8, E, None, None, ,  
02/09/2018 19:08, 6, 75, 0 ,7, 7, E, None, None, ,  
02/09/2018 19:05, 6, 75, 0 ,6, 7, E, None, None, ,  
02/09/2018 18:58, 6, 74, 0 ,6, 7, E, None, None, ,  
02/09/2018 18:49, 6, 74, 0 ,6, 7, E, None, None, ,  
02/09/2018 18:48, 6, 74, 0 ,6, 7, E, None, None, ,  
02/09/2018 18:38, 7, 72, 0 ,6, 7, E, None, None, ,  
02/09/2018 18:34, 7, 72, 0 ,5, 7, E, None, None, ,  
02/09/2018 18:28, 7, 71, 0 ,6, 6, E, None, None, ,  
02/09/2018 18:19, 7, 70, 0 ,4, 5, E, None, None, ,  
02/09/2018 18:17, 7, 70, 0 ,4, 5, E, None, None, ,  
02/09/2018 18:07, 8, 69, 0 ,4, 4, E, None, None, ,  
02/09/2018 18:04, 8, 69, 0 ,2, 4, E, None, None, ,  
02/09/2018 17:57, 8, 69, 0 ,2, 6, SE, None, None, ,  
02/09/2018 17:49, 8, 69, 0 ,0, 4, NE, None, None, ,  
02/09/2018 17:47, 8, 69, 0 ,0, 4, E, None, None, ,  
02/09/2018 17:37, 8, 69, 0 ,2, 4, E, None, None, ,  
02/09/2018 17:34, 8, 69, 0 ,3, 4, E, None, None, ,  
02/09/2018 17:27, 8, 69, 0 ,4, 4, E, None, None, ,  
02/09/2018 17:19, 8, 68, 0 ,4, 4, E, None, None, ,  
02/09/2018 17:17, 8, 68, 0 ,4, 4, E, None, None, ,  
02/09/2018 17:07, 8, 68, 0 ,3, 4, NE, None, None, ,  
02/09/2018 17:04, 8, 68, 0 ,2, 4, E, None, None, ,  
02/09/2018 16:57, 8, 67, 0 ,4, 5, E, None, None, ,  
02/09/2018 16:49, 8, 67, 0 ,4, 6, E, None, None, ,  
02/09/2018 16:47, 8, 67, -1 ,4, 6, E, None, None, ,  
02/09/2018 16:37, 8, 67, 0 ,4, 4, E, None, None, ,  
02/09/2018 16:34, 8, 67, 0 ,3, 4, E, None, None, ,  
02/09/2018 16:27, 8, 67, 0 ,4, 5, E, None, None, ,  
02/09/2018 16:19, 8, 67, 0 ,3, 5, E, None, None, ,  
02/09/2018 16:17, 8, 67, 0 ,4, 5, E, None, None, ,  
02/09/2018 16:07, 8, 67, 0 ,4, 6, E, None, None, ,  
02/09/2018 16:04, 8, 67, -1 ,5, 7, E, None, None, ,  
02/09/2018 15:57, 8, 67, -1 ,5, 7, E, None, None, ,  
02/09/2018 15:49, 8, 67, -1 ,5, 6, E, None, None, ,  
02/09/2018 15:47, 8, 67, 0 ,4, 6, E, None, None, ,  
02/09/2018 15:37, 8, 66, -1 ,4, 5, E, None, None, ,  
02/09/2018 15:34, 9, 66, 0 ,4, 5, E, None, None, ,  
02/09/2018 15:26, 8, 66, -1 ,4, 6, E, None, None, ,  
02/09/2018 15:19, 8, 65, -1 ,4, 6, E, None, None, ,  
02/09/2018 15:16, 9, 64, -1 ,4, 6, E, None, None, ,  
02/09/2018 15:06, 10, 64, 0 ,4, 6, E, None, None, ,  
02/09/2018 15:04, 10, 64, 1 ,4, 6, E, None, None, ,  
02/09/2018 14:56, 9, 66, 0 ,4, 5, E, None, None, ,  
02/09/2018 14:49, 8, 66, -1 ,4, 6, E, None, None, ,  
02/09/2018 14:46, 8, 66, -1 ,4, 6, E, None, None, ,  
02/09/2018 14:36, 8, 66, -1 ,4, 6, E, None, None, ,  
02/09/2018 14:34, 9, 66, 0 ,4, 6, E, None, None, ,  
02/09/2018 14:26, 8, 66, -1 ,4, 6, E, None, None, ,  
02/09/2018 14:19, 8, 66, -1 ,4, 6, E, None, None, ,  
02/09/2018 14:16, 8, 66, -1 ,4, 6, E, None, None, ,  
02/09/2018 14:06, 8, 65, -1 ,6, 7, E, None, None, ,  
02/09/2018 14:04, 8, 65, -2 ,6, 7, E, None, None, ,  
02/09/2018 13:56, 8, 64, -2 ,5, 7, E, None, None, ,  
02/09/2018 13:49, 8, 62, -2 ,4, 6, E, None, None, ,  
02/09/2018 13:46, 9, 62, -1 ,6, 6, E, None, None, ,  
02/09/2018 13:36, 11, 64, 1 ,4, 7, E, None, None, ,  
02/09/2018 13:34, 10, 64, 0 ,4, 7, NE, None, None, ,  
02/09/2018 13:26, 9, 64, -1 ,2, 4, SE, None, None, ,  
02/09/2018 13:19, 9, 63, -1 ,3, 5, E, None, None, ,  
02/09/2018 13:16, 10, 63, 0 ,4, 5, E, None, None, ,  
02/09/2018 13:06, 10, 62, 0 ,3, 4, NE, None, None, ,  
02/09/2018 13:04, 10, 62, -1 ,4, 4, E, None, None, ,  
02/09/2018 12:56, 10, 62, -1 ,4, 6, E, Yes, , ,  
02/09/2018 12:49, 11, 62, 1 ,3, 5, NE, None, None, ,  
02/09/2018 12:46, 11, 62, 1 ,4, 4, E, None, None, ,  
02/09/2018 12:36, 11, 65, 2 ,4, 4, NE, Yes, , ,  
02/09/2018 12:34, 11, 66, 2 ,3, 5, NE, Yes, , ,  
02/09/2018 12:26, 7, 67, -1 ,4, 5, E, None, None, ,  
02/09/2018 12:19, 8, 67, -1 ,3, 4, E, None, None, ,  
02/09/2018 12:15, 8, 67, -1 ,3, 5, E, None, None, ,  
02/09/2018 12:05, 8, 67, -1 ,4, 5, E, None, None, ,  
02/09/2018 12:04, 8, 67, -1 ,2, 5, E, Yes, , ,  
02/09/2018 11:55, 7, 67, -1 ,2, 6, E, None, None, ,  
02/09/2018 11:49, 8, 67, -1 ,4, 6, E, Yes, , ,  
02/09/2018 11:45, 8, 67, -1 ,3, 6, E, Yes, , ,  
02/09/2018 11:35, 7, 66, -1 ,4, 5, E, Yes, , ,  
02/09/2018 11:34, 7, 66, -1 ,3, 6, E, Yes, , ,  
02/09/2018 11:25, 9, 66, 0 ,3, 6, E, Yes, , ,  
02/09/2018 11:19, 10, 67, 1 ,4, 6, E, Yes, , ,  
02/09/2018 11:15, 10, 68, 2 ,4, 7, NE, Yes, , ,  
02/09/2018 11:05, 9, 70, 2 ,4, 6, NE, Yes, , ,  
02/09/2018 11:04, 9, 71, 2 ,3, 6, NE, Yes, , ,  
02/09/2018 10:55, 8, 72, 2 ,3, 6, NE, Yes, , ,  
02/09/2018 10:49, 7, 73, 1 ,4, 6, E, Yes, , ,  
02/09/2018 10:45, 7, 73, 0 ,4, 6, E, Yes, , ,  
02/09/2018 10:35, 6, 75, 0 ,4, 6, NE, Yes, , ,  
02/09/2018 10:34, 6, 75, 0 ,5, 7, NE, Yes, , ,  
02/09/2018 10:25, 5, 76, -1 ,4, 7, NE, None, None, ,  
02/09/2018 10:19, 5, 76, -1 ,4, 6, NE, None, None, ,  
02/09/2018 10:15, 4, 77, -1 ,4, 6, E, None, None, ,  
02/09/2018 10:05, 4, 77, -1 ,4, 6, E, None, None, ,  
02/09/2018 10:04, 4, 78, -1 ,4, 6, E, None, None, ,  
02/09/2018 09:55, 4, 78, -1 ,4, 4, E, None, None, ,  
02/09/2018 09:49, 4, 78, -1 ,4, 5, E, None, None, ,  
02/09/2018 09:45, 4, 79, -1 ,4, 5, E, Yes, , ,  
02/09/2018 09:35, 4, 80, 0 ,4, 6, E, None, None, ,  
02/09/2018 09:34, 4, 80, 0 ,4, 6, E, None, None, ,  
02/09/2018 09:25, 4, 81, -1 ,4, 6, E, None, None, ,  
02/09/2018 09:19, 4, 81, 0 ,1, 2, E, Yes, , ,  
02/09/2018 09:14, 4, 82, -1 ,2, 4, E, Yes, , ,  
02/09/2018 09:04, 4, 82, -1 ,3, 4, E, Yes, , ,  
02/09/2018 09:04, 4, 83, 0 ,3, 4, E, Yes, , ,  
02/09/2018 08:54, 4, 84, 0 ,0, 4, E, Yes, , ,  
02/09/2018 08:49, 3, 84, 0 ,2, 4, E, Yes, , ,  
02/09/2018 08:44, 3, 84, -1 ,4, 4, E, None, None, ,  
02/09/2018 08:34, 3, 85, -1 ,4, 4, E, None, None, ,  
02/09/2018 08:34, 3, 85, -1 ,4, 4, E, None, None, ,  
02/09/2018 08:24, 3, 86, -1 ,2, 4, E, Yes, , ,  
02/09/2018 08:19, 2, 86, -1 ,3, 5, E, None, None, ,  
02/09/2018 08:14, 2, 86, -1 ,4, 6, E, None, None, ,  
02/09/2018 08:04, 2, 86, -1 ,3, 4, E, Yes, , ,  
02/09/2018 08:04, 3, 86, 0 ,3, 4, E, Yes, , ,  
02/09/2018 07:54, 3, 86, 0 ,2, 4, E, Yes, , ,  
02/09/2018 07:49, 3, 85, -1 ,2, 6, SE, Yes, , ,  
02/09/2018 07:44, 2, 85, -1 ,4, 8, E, Yes, , ,  
02/09/2018 07:34, 2, 86, -1 ,6, 6, E, None, None, ,  
02/09/2018 07:34, 2, 86, -1 ,6, 6, E, None, None, ,  
02/09/2018 07:24, 2, 85, -1 ,4, 6, E, None, None, ,  
02/09/2018 07:19, 3, 85, -1 ,4, 4, E, Yes, , ,  
02/09/2018 07:14, 2, 85, -1 ,3, 4, E, Yes, , ,  
02/09/2018 07:04, 3, 85, -1 ,4, 6, E, None, None, ,  
02/09/2018 07:04, 3, 85, -1 ,4, 6, E, None, None, ,  
02/09/2018 06:54, 3, 85, -1 ,4, 5, E, None, None, ,  
02/09/2018 06:49, 3, 85, -1 ,3, 4, E, None, None, ,  
02/09/2018 06:44, 3, 85, -1 ,2, 4, E, Yes, , ,  
02/09/2018 06:34, 3, 85, -1 ,4, 4, E, None, None, ,  
02/09/2018 06:34, 3, 85, -1 ,4, 4, E, None, None, ,  
02/09/2018 06:24, 3, 85, 0 ,2, 6, SE, Yes, , ,  
02/09/2018 06:19, 3, 85, -1 ,4, 7, E, None, None, ,  
02/09/2018 06:13, 3, 85, 0 ,6, 7, E, Yes, , ,  
02/09/2018 06:04, 3, 85, -1 ,5, 6, E, None, None, ,  
02/09/2018 06:03, 3, 85, -1 ,5, 6, E, None, None, ,  
02/09/2018 05:53, 3, 85, -1 ,4, 6, E, Yes, , ,  
02/09/2018 05:49, 3, 85, 0 ,5, 6, E, Yes, , ,  
02/09/2018 05:43, 3, 85, -1 ,5, 7, E, None, None, ,  
02/09/2018 05:34, 3, 85, -1 ,6, 7, E, Yes, , ,  
02/09/2018 05:33, 3, 85, -1 ,6, 7, E, Yes, , ,  
02/09/2018 05:23, 3, 84, 0 ,6, 7, NE, Yes, , ,  
02/09/2018 05:19, 3, 84, -1 ,6, 8, NE, Yes, , ,  
02/09/2018 05:13, 3, 84, 0 ,6, 8, NE, Yes, , ,  
02/09/2018 05:04, 3, 83, -1 ,7, 9, E, Yes, , ,  
02/09/2018 05:03, 3, 82, -1 ,7, 9, E, Yes, , ,  
02/09/2018 04:53, 4, 81, -1 ,4, 6, NE, Yes, , ,  
02/09/2018 04:49, 4, 80, -1 ,4, 6, NE, Yes, , ,  
02/09/2018 04:43, 4, 80, -1 ,4, 6, N, Yes, , ,  
02/09/2018 04:34, 4, 79, -1 ,5, 7, NE, Yes, , ,  
02/09/2018 04:33, 4, 79, -1 ,6, 7, NE, Yes, , ,  
02/09/2018 04:23, 4, 79, -1 ,5, 8, NE, Yes, , ,  
02/09/2018 04:19, 4, 79, -1 ,6, 8, NE, Yes, , ,  
02/09/2018 04:13, 4, 79, -1 ,6, 7, NE, Yes, , ,  
02/09/2018 04:04, 4, 79, -1 ,6, 13, E, Yes, , ,  
02/09/2018 04:03, 4, 79, -1 ,9, 13, E, Yes, , ,  
02/09/2018 03:53, 5, 79, 0 ,5, 7, NE, Yes, , ,  
02/09/2018 03:49, 5, 79, 0 ,4, 6, NE, Yes, , ,  
02/09/2018 03:43, 5, 79, 0 ,2, 7, N, None, None, ,  
02/09/2018 03:34, 5, 80, 0 ,4, 9, NE, None, None, ,  
02/09/2018 03:32, 5, 80, 0 ,4, 9, NE, None, None, ,  
02/09/2018 03:22, 5, 80, 0 ,5, 9, NE, None, None, ,  
02/09/2018 03:19, 5, 80, 0 ,6, 9, NE, None, None, ,  
02/09/2018 03:12, 4, 80, 0 ,5, 7, NE, None, None, ,  
02/09/2018 03:04, 5, 81, 0 ,6, 9, NE, Yes, , ,  
02/09/2018 03:02, 5, 81, 0 ,6, 9, NE, None, None, ,  
02/09/2018 02:52, 5, 81, 1 ,4, 9, NE, Yes, , ,  
02/09/2018 02:49, 5, 81, 1 ,7, 11, E, None, None, ,  
02/09/2018 02:42, 5, 81, 1 ,8, 11, E, None, None, ,  
02/09/2018 02:34, 5, 82, 1 ,8, 10, E, None, None, ,  
02/09/2018 02:32, 5, 82, 1 ,7, 10, NE, None, None, ,  
02/09/2018 02:22, 5, 83, 1 ,8, 9, E, Yes, , ,  
02/09/2018 02:19, 6, 83, 2 ,7, 9, E, None, None, ,  
02/09/2018 02:12, 6, 83, 2 ,7, 9, E, Yes, , ,  
02/09/2018 02:04, 6, 82, 2 ,7, 9, E, Yes, , ,  
02/09/2018 02:02, 6, 82, 2 ,7, 9, E, Yes, , ,  
02/09/2018 01:52, 6, 82, 2 ,7, 9, NE, Yes, , ,  
02/09/2018 01:49, 6, 82, 2 ,6, 12, NE, Yes, , ,  
02/09/2018 01:42, 6, 81, 2 ,7, 12, E, Yes, , ,  
02/09/2018 01:34, 6, 81, 2 ,5, 7, NE, Yes, , ,  
02/09/2018 01:32, 6, 81, 2 ,6, 9, NE, Yes, , ,  
02/09/2018 01:22, 6, 81, 2 ,7, 10, NE, None, None, ,  
02/09/2018 01:19, 6, 81, 2 ,8, 9, NE, None, None, ,  
02/09/2018 01:12, 6, 81, 2 ,6, 7, NE, None, None, ,  
02/09/2018 01:04, 6, 81, 2 ,5, 7, NE, Yes, , ,  
02/09/2018 01:02, 6, 81, 2 ,6, 7, NE, None, None, ,  
02/09/2018 00:52, 6, 81, 2 ,2, 6, NE, Yes, , ,  
02/09/2018 00:49, 7, 81, 2 ,4, 6, NE, Yes, , ,  
02/09/2018 00:42, 7, 81, 2 ,5, 6, NE, Yes, , ,  
02/09/2018 00:34, 7, 80, 2 ,2, 6, NE, Yes, , ,  
02/09/2018 00:32, 7, 80, 2 ,3, 4, NE, Yes, , ,  
02/09/2018 00:21, 7, 80, 2 ,3, 6, NE, Yes, , ,  
02/09/2018 00:19, 7, 80, 2 ,2, 6, N, Yes, , ,  
02/09/2018 00:11, 7, 80, 2 ,4, 6, NE, Yes, , ,  
02/09/2018 00:04, 7, 80, 2 ,4, 7, NE, Yes, , ,  
02/09/2018 00:01, 7, 80, 2 ,6, 7, NE, Yes, , ,  
02/08/2018 23:51, 7, 79, 2 ,7, 8, E, Yes, , ,  
02/08/2018 23:49, 7, 79, 2 ,7, 8, E, Yes, , ,  
02/08/2018 23:41, 7, 79, 2 ,6, 7, E, Yes, , ,  
02/08/2018 23:34, 7, 79, 2 ,6, 9, E, None, None, ,  
02/08/2018 23:31, 7, 79, 2 ,7, 9, E, Yes, , ,  
02/08/2018 23:21, 7, 78, 2 ,4, 6, E, Yes, , ,  
02/08/2018 23:19, 7, 78, 2 ,4, 7, E, Yes, , ,  
02/08/2018 23:11, 8, 76, 2 ,6, 7, E, Yes, , ,  
02/08/2018 23:04, 8, 75, 2 ,6, 8, E, Yes, , ,  
02/08/2018 23:01, 8, 75, 2 ,6, 8, E, Yes, , ,  
02/08/2018 22:51, 8, 74, 1 ,7, 9, E, Yes, , ,  
02/08/2018 22:49, 8, 74, 1 ,7, 9, E, Yes, , ,  
02/08/2018 22:41, 8, 74, 2 ,7, 9, E, None, None, ,  
02/08/2018 22:34, 8, 75, 2 ,5, 9, E, None, None, ,  
02/08/2018 22:31, 8, 75, 2 ,6, 9, E, None, None, ,  
02/08/2018 22:21, 8, 75, 2 ,5, 9, NE, None, None, ,  
02/08/2018 22:19, 8, 75, 2 ,6, 9, NE, None, None, ,  
02/08/2018 22:11, 8, 75, 2 ,7, 9, NE, None, None, ,  
02/08/2018 22:04, 8, 74, 2 ,6, 9, NE, Yes, , ,  
02/08/2018 22:01, 8, 74, 2 ,6, 12, NE, None, None, ,  
02/08/2018 21:51, 8, 74, 2 ,6, 12, NE, Yes, , ,  
02/08/2018 21:49, 8, 74, 2 ,7, 12, NE, Yes, , ,  
02/08/2018 21:41, 9, 74, 2 ,9, 12, NE, Yes, , ,  
02/08/2018 21:34, 9, 74, 2 ,8, 10, NE, None, None, ,  
02/08/2018 21:30, 9, 74, 2 ,7, 9, NE, Yes, , ,  
02/08/2018 21:20, 9, 74, 2 ,4, 6, NE, Yes, , ,  
02/08/2018 21:19, 9, 74, 2 ,4, 6, NE, Yes, , ,  
02/08/2018 21:10, 9, 75, 2 ,6, 7, NE, None, None, ,  
02/08/2018 21:04, 9, 75, 3 ,5, 9, NE, Yes, , ,  
02/08/2018 21:00, 9, 75, 3 ,7, 9, NE, None, None, ,  
02/08/2018 20:50, 9, 75, 2 ,10, 12, E, None, None, ,  
02/08/2018 20:49, 9, 75, 3 ,8, 12, E, None, None, ,  
02/08/2018 20:40, 9, 75, 3 ,8, 10, E, Yes, , ,  
02/08/2018 20:34, 9, 74, 3 ,7, 11, E, None, None, ,  
02/08/2018 20:30, 9, 74, 3 ,4, 11, E, Yes, , ,  
02/08/2018 20:20, 9, 73, 2 ,6, 12, NE, None, None, ,  
02/08/2018 20:19, 9, 73, 2 ,6, 12, NE, None, None, ,  
02/08/2018 20:10, 9, 74, 2 ,7, 14, NE, None, None, ,  
02/08/2018 20:04, 9, 73, 3 ,6, 11, E, Yes, , ,  
02/08/2018 20:00, 9, 73, 3 ,2, 12, NE, Yes, , ,  
02/08/2018 19:50, 9, 74, 3 ,9, 15, NE, None, None, ,  
02/08/2018 19:49, 9, 74, 3 ,10, 15, NE, Yes, , ,  
Change End Date:

Copyright © 1998-2015 Vaisala, Inc.
All Rights Reserved
Send comments about the data to:
SCAN Web ® is a registered trademark of Vaisala, Inc.
SCAN Web Version 6.0